Change the Weather History Date:

Sunday, February 17, 2013

  Actual Average Record
Temperature  
Mean Temperature 31 °F -  
Max Temperature 34 °F 50 °F 72 °F (2006)
Min Temperature 28 °F 33 °F 21 °F (2007)
Degree Days  
Heating Degree Days 34    
Moisture  
Dew Point 17 °F    
Average Humidity 57    
Maximum Humidity 87    
Minimum Humidity 37    
Precipitation  
Precipitation 0.01 in - - ()
Sea Level Pressure  
Sea Level Pressure 29.96 in    
Wind  
Wind Speed 17 mph (NW)    
Max Wind Speed 23 mph    
Max Gust Speed 33 mph    
Visibility 9 miles    
Events Snow    
Averages and records for this station are not official NWS values.
T = Trace of Precipitation, MM = Missing Value Source: NWS Daily Summary

Daily Weather History Graph

Daily Weather History Graph

Search for Another Location

Airport or City:

Trip Planner

Search our weather history database for the weather conditions in past years. The results will help you decide how hot, cold, wet, or windy it might be!

Date:

Astronomy

Feb. 17, 2013 Rise Set
Actual Time 6:49 AM EST 5:46 PM EST
Civil Twilight 6:23 AM EST 6:13 PM EST
Nautical Twilight 5:53 AM EST 6:43 PM EST
Astronomical Twilight 5:23 AM EST 7:13 PM EST
Moon 10:53 AM EST (2/17) 12:28 AM EST (2/17)
Length of Visible Light 11h 49m
Length of Day
10h 56m
Waxing Crescent, 49% of the Moon is Illuminated
Feb 17
Waxing Crescent
Feb 17
First Quarter
Feb 25
Full
Mar 4
Last Quarter
Mar 11
New

Hourly Weather History & Observations

Time (EST) Temp. Windchill Dew Point Humidity Pressure Visibility Wind Dir Wind Speed Gust Speed Precip Events Conditions
12:29 AM 33.8 °F 22.2 °F 30.2 °F 87% 29.77 in 0.5 mi North 20.7 mph 31.1 mph 0.00 in Snow Snow
12:49 AM 33.8 °F 23.9 °F 30.2 °F 87% 29.78 in 1.0 mi NNW 15.0 mph 27.6 mph 0.01 in Snow Light Snow
12:56 AM 33.1 °F 20.9 °F 28.0 °F 82% 29.79 in 1.0 mi NNW 21.9 mph 25.3 mph 0.01 in Snow Light Snow
1:12 AM 33.8 °F 21.6 °F 28.4 °F 81% 29.78 in 5.0 mi NNW 23.0 mph 28.8 mph 0.00 in Snow Light Snow
1:36 AM 33.8 °F 24.8 °F 28.4 °F 81% 29.79 in 10.0 mi NNW 12.7 mph - 0.00 in   Overcast
1:56 AM 34.0 °F 23.4 °F 25.0 °F 70% 29.80 in 10.0 mi NW 17.3 mph 29.9 mph 0.00 in   Overcast
2:56 AM 32.0 °F 19.8 °F 21.9 °F 66% 29.81 in 10.0 mi NW 20.7 mph 27.6 mph N/A   Partly Cloudy
3:56 AM 30.9 °F 20.2 °F 19.9 °F 64% 29.83 in 10.0 mi WNW 15.0 mph 24.2 mph N/A   Partly Cloudy
4:56 AM 30.0 °F 18.3 °F 19.9 °F 66% 29.85 in 10.0 mi NW 17.3 mph 29.9 mph N/A   Clear
5:56 AM 28.9 °F 18.6 °F 18.0 °F 64% 29.88 in 10.0 mi WNW 12.7 mph 24.2 mph N/A   Partly Cloudy
6:56 AM 28.9 °F 17.7 °F 17.1 °F 61% 29.90 in 10.0 mi WNW 15.0 mph - N/A   Partly Cloudy
7:56 AM 30.9 °F 19.4 °F 15.1 °F 52% 29.92 in 10.0 mi NW 17.3 mph 27.6 mph N/A   Partly Cloudy
8:56 AM 32.0 °F 20.1 °F 16.0 °F 52% 29.94 in 10.0 mi NW 19.6 mph 27.6 mph N/A   Partly Cloudy
9:56 AM 33.1 °F 22.2 °F 19.9 °F 59% 29.96 in 10.0 mi WNW 17.3 mph 29.9 mph N/A   Mostly Cloudy
10:56 AM 33.1 °F 23.4 °F 19.9 °F 59% 29.97 in 10.0 mi WNW 13.8 mph 23.0 mph N/A   Mostly Cloudy
11:56 AM 32.0 °F 21.6 °F 18.0 °F 56% 29.99 in 10.0 mi WNW 15.0 mph - N/A   Mostly Cloudy
12:56 PM 32.0 °F 20.8 °F 17.1 °F 54% 29.98 in 10.0 mi West 17.3 mph 28.8 mph N/A   Mostly Cloudy
1:56 PM 32.0 °F 20.5 °F 14.0 °F 48% 29.99 in 10.0 mi WNW 18.4 mph 25.3 mph N/A   Mostly Cloudy
2:56 PM 33.1 °F 21.9 °F 14.0 °F 46% 29.99 in 10.0 mi West 18.4 mph 33.4 mph N/A   Mostly Cloudy
3:56 PM 33.1 °F 21.2 °F 12.0 °F 42% 30.02 in 10.0 mi West 20.7 mph 27.6 mph N/A   Mostly Cloudy
4:56 PM 32.0 °F 21.2 °F 8.1 °F 37% 30.05 in 10.0 mi West 16.1 mph 29.9 mph N/A   Mostly Cloudy
5:56 PM 30.9 °F 21.2 °F 7.0 °F 37% 30.08 in 10.0 mi West 12.7 mph 21.9 mph N/A   Scattered Clouds
6:56 PM 30.0 °F 18.3 °F 7.0 °F 38% 30.12 in 10.0 mi West 17.3 mph 26.5 mph N/A   Scattered Clouds
7:56 PM 30.0 °F 18.7 °F 7.0 °F 38% 30.15 in 10.0 mi West 16.1 mph 23.0 mph N/A   Partly Cloudy
8:56 PM 28.9 °F 19.8 °F 7.0 °F 40% 30.17 in 10.0 mi WNW 10.4 mph 19.6 mph N/A   Clear
9:56 PM 28.9 °F 19.2 °F 7.0 °F 40% 30.19 in 10.0 mi NW 11.5 mph - N/A   Partly Cloudy
10:56 PM 28.0 °F 15.7 °F 5.0 °F 38% 30.22 in 10.0 mi NW 17.3 mph - N/A   Clear
11:56 PM 28.0 °F 17.0 °F 5.0 °F 38% 30.23 in 10.0 mi NW 13.8 mph - N/A   Clear